Regional Weather Roundup
Issued by NWS State College, PA

Home | Current Version | Previous Version | Graphics & Text | Print | Product List | Glossary Off
Versions: 1 2 3 4 5 6 7 8 9 10 11 12 13 14 15 16 17 18 19 20 21 22 23 24 25 26 27 28 29 30 31 32 33 34 35 36 37 38 39 40 41 42 43 44 45 46 47 48 49 50

165
ASUS41 KCTP 061403
RWRCTP

REGIONAL WEATHER ROUNDUP
NATIONAL WEATHER SERVICE STATE COLLEGE PA
1000 AM EDT FRI MAY 06 2016

Note: "fair" indicates few or no clouds below 12,000 feet with no
significant weather and/or obstructions to visibility.

* = STATION THAT DOES NOT REPORT PRECIPITATION /E.G. RAIN...SNOW...ETC/
    THUNDER OR FOG.

PAZ002>004-007>009-013>016-020>023-029>032-061500-
WESTERN PENNSYLVANIA

CITY           SKY/WX    TMP DP  RH WIND       PRES   REMARKS
ERIE           SUNNY     53  42  66 NW7       29.88S
MEADVILLE      SUNNY     55  43  63 VRB7      29.85S
FRANKLIN*      SUNNY     55  37  50 N13G23    29.86S
NEW CASTLE     FAIR      57  44  62 N9        29.86S
BEAVER COUNTY  NOT AVBL
BUTLER*        SUNNY     57  39  51 N8G20     29.85S
PITTSBURGH INT PTSUNNY   59  41  51 N10       29.83S
PITTSBURGH     PTSUNNY   58  39  49 N10G18    29.81R
INDIANA*       CLOUDY    55  41  58 N10G16    29.83S
LATROBE        NOT AVBL
WASHINGTON CO* MOSUNNY   57  43  58 N13       29.84R
$$

PAZ004>006-010>012-017>019-024>028-033>037-041-042-045-046-049>053-061500-
CENTRAL PENNSYLVANIA

CITY           SKY/WX    TMP DP  RH WIND       PRES   REMARKS
BRADFORD       SUNNY     54  35  48 NE12G25   29.82R
DUBOIS         MOSUNNY   55  36  48 NE13      29.79S
CLEARFIELD     PTSUNNY   55  36  48 NE15G24   29.77F
JOHNSTOWN      CLOUDY    51  37  58 N9        29.76S
ALTOONA        CLOUDY    53  41  63 N16       29.75S
STATE COLLEGE  CLOUDY    54  43  66 N12       29.74F
WILLIAMSPORT   LGT RAIN  56  43  61 VRB5      29.73S
SELINSGROVE    CLOUDY    57  45  64 N14       29.71S
FT INDIANTOWN  LGT RAIN  54  48  82 N5        29.68F
CAPITAL CITY   LGT RAIN  57  45  64 N7        29.69S
HARRISBURG     LGT RAIN  56  48  74 N6        29.68F
YORK           LGT RAIN  54  48  80 N5        29.68F
$$

PAZ038>040-043-044-047-048-054-055-060>062-067>071-061500-
EASTERN PENNSYLVANIA

CITY           SKY/WX    TMP DP  RH WIND       PRES   REMARKS
SCRANTON       LGT RAIN  51  46  83 NE8       29.71S
MOUNT POCONO   LGT RAIN  44  43  96 NE10      29.70R FOG
ALLENTOWN      RAIN      52  48  86 NE9       29.67F FOG
QUAKERTOWN*    CLOUDY    50  48  93 NE9       29.68S
READING        LGT RAIN  51  49  92 N3        29.68S FOG
LANCASTER      RAIN      51  49  92 NE3       29.69R FOG
COATESVILLE    HVY RAIN  50  50 100 MISG      29.69S
POTTSTOWN      RAIN      49  32  52 VRB3      29.70R
BLUE BELL      CLOUDY    46  46 100 CALM      29.69R
DOYLESTOWN     HVY RAIN  47  47 100 CALM      29.69R FOG
WILLOW GROVE   NOT AVBL
NORTH PHILA    RAIN      50  47  89 E13       29.70F FOG
PHILADELPHIA   LGT RAIN  50  46  86 NE12G21   29.68S FOG
$$




USA.gov is the U.S. government's official web portal to all federal, state and local government web resources and services.